LIGHT-1

Last updated on Sun Jan 15 2023 00:02:07 GMT+0000 (Coordinated Universal Time)

1 51509U 98067TG 23014.24793486 .02853019 11968-4 10153-2 0 9992 2 51509 51.6315 329.9914 0000823 266.7014 93.3912 16.24270928 54073

Satellite not in orbit